Location: Caltech
(34.1382°N, 118.1253°W)
Time: 14:38:07
(UTC-08:00)

Cosmos 44 Rocket - Visible Passes

Search period start: 27 February 2015 00:00
Search period end: 09 March 2015 01:00
Orbit: 661 x 731 km, 65.1° (Epoch: 26 February)

Date Brightness Start Highest point End Pass type
(mag) Time Alt. Az. Time Alt. Az. Time Alt. Az.
27 Feb 5.6 04:49:52 10° SSE 04:53:34 23° ESE 04:57:22 10° ENE visible
28 Feb 3.2 05:30:42 10° SSW 05:35:29 88° WNW 05:40:14 10° NNE visible
01 Mar 4.9 04:32:02 10° S 04:36:14 32° ESE 04:40:28 10° NE visible
02 Mar 6.2 03:35:58 10° ESE 03:37:06 11° ESE 03:38:34 10° E visible
02 Mar 3.2 05:13:29 10° SW 05:18:13 64° WNW 05:22:55 10° NNE visible
03 Mar 4.2 04:16:54 28° SSE 04:18:55 44° ESE 04:23:25 10° NE visible
04 Mar 5.8 03:20:15 16° ESE 03:20:15 16° ESE 03:22:40 10° ENE visible
04 Mar 3.5 04:59:03 30° WSW 05:00:59 46° WNW 05:05:32 10° NNE visible
05 Mar 3.7 04:02:08 57° E 04:02:08 57° E 04:06:17 10° NE visible
05 Mar 5.0 05:40:56 10° W 05:43:37 14° NW 05:46:06 10° NNW visible
06 Mar 6.1 03:05:03 14° ENE 03:05:03 14° ENE 03:06:04 10° ENE visible
06 Mar 3.9 04:43:49 34° NW 04:43:49 34° NW 04:48:05 10° N visible
07 Mar 4.7 03:46:35 31° NNE 03:46:35 31° NNE 03:49:02 10° NNE visible
07 Mar 5.2 05:25:21 10° WNW 05:26:33 11° NW 05:27:40 10° NNW visible
08 Mar 4.7 05:27:59 22° NNW 05:27:59 22° NNW 05:30:31 10° N visible
